Weather in Kolodiazne

Ukraine / Kharkiv Region     50°00′19″N   37°41′00″E
temp.,
°C
wind,
m/s
gust,
m/s
humid.,
%
clouds,
%
prec.,
mm/h
press.,
hPa
HPBL,
m
22 october, fri
fri2200:00+11sw81861100 0.0 1012780
03:00+10sw8176591 0.0 1010633
06:00+9sw8168787 0.0 1010569
09:00+11sw8158299 0.0 1010598
12:00+16wsw8115798 0.0 10111014
15:00+17wsw7105259 0.0 10111032
18:00+14wsw49575 0.0 1012179
21:00+11wsw365842 0.0 101484
23 october, sat
sat2300:00+10sw3461100 0.0 101449
03:00+11sw355915 0.0 1014107
06:00+8ssw347597 0.0 101454
09:00+11sw41063100 0.0 1014323
12:00+16wsw61042100 0.0 10141094
15:00+15w71046100 0.0 10141761
18:00+12wsw61060100 0.1 1015706
21:00+8wnw4106013 0.1 1016249
24 october, sun
sun2400:00+5wnw410720 0.0 1018285
03:00+3w368714 0.0 1019102
06:00+2w348851 0.0 101955
09:00+5w476795 0.0 1020348
12:00+9wnw564870 0.0 10201429
15:00+9wnw674471 0.0 10191643
18:00+5wsw485597 0.0 1020136
21:00+5nw5107099 0.4 1020878
25 october, mon
mon2500:00+4nw7118481 0.1 1021854
03:00+3nnw71065100 0.1 10221216
06:00+2nnw696394 0.0 10251276
09:00+1nnw797058 0.0 1028897
12:00+4n675389 0.0 10301237
15:00+5n574634 0.0 10301254
18:00+1n335782 0.0 103232
21:00+1n235913 0.0 103431
26 october, tue
tue2600:00−1n22670 0.0 103511
03:00−2nne11710 0.0 103510
06:00−2nnw00740 0.0 103510
09:00+1s11580 0.0 1036134
12:00+6s23405 0.0 1034708
15:00+8ssw333312 0.0 1033924
18:00+3ssw224679 0.0 103314
21:00+2ssw335379 0.0 103228